Location: Newark
(49.3000°N, 9.4667°E)
Time: 12:18:12
(UTC+00:00)

Tiros 1 - Pass Details

Date: 25 May 2019
Orbit: 631 x 664 km, 48.4° (Epoch: 19 June)

Event Time Altitude Azimuth Distance (km) Brightness Sun altitude
Rises 09:22:17 0° 222° (SW) 2,913 10.5 53.4°
Reaches altitude 10° 09:24:45 10° 213° (SSW) 2,012 9.9 53.7°
Maximum altitude 09:28:53 33° 149° (SSE) 1,079 9.8 54.2°
Drops below altitude 10° 09:33:04 10° 86° (E) 2,036 10.2 54.7°
Sets 09:35:35 0° 77° (ENE) 2,954 10.8 55.0°
